Regional Weather Roundup
Issued by NWS

Home | Current Version | Previous Version | Text Only | Print | Product List | Glossary Off
Versions: 1 2 3 4 5 6 7 8 9 10 11 12 13 14 15 16 17 18 19 20 21 22 23 24 25 26 27 28 29 30 31 32 33 34 35 36 37 38 39 40 41 42 43 44 45 46 47 48 49 50

000
ASUS43 KLSX 132007
RWRMO

WEATHER SUMMARY FOR MISSOURI
NATIONAL WEATHER SERVICE SPRINGFIELD MO
300 PM CDT SUN JUL 13 2014

NOTE: "FAIR" INDICATES FEW OR NO CLOUDS BELOW 12,000 FEET WITH NO
       SIGNIFICANT WEATHER AND/OR OBSTRUCTIONS TO VISIBILITY.
       CURRENT SKY AND/OR WEATHER CONDITIONS ARE NOT AVAILABLE FOR
       CHILLICOTHE AND FARMINGTON.

MOZ001>031-035>038-043-044-053-054-132100-
...NORTHERN AND WESTERN MISSOURI...

CITY           SKY/WX    TMP DP  RH WIND       PRES   REMARKS
KANSAS CTY INT MOSUNNY   84  72  67 N10       30.01F
KANSAS C DTWN  MOSUNNY   85  74  69 N9        29.98F HX  92
LEE`S SUMMIT   CLOUDY    83  72  69 N8        30.00F
ST JOSEPH      SUNNY     85  69  58 NE7       30.01F
CHILLICOTHE      N/A     86  69  56 VRB5      30.00F HX  90
KIRKSVILLE     MOSUNNY   85  67  54 NE5       30.00F

$$
MOZ066>068-077>081-088>096-101>105-132100-
...SOUTHWEST MISSOURI...

CITY           SKY/WX    TMP DP  RH WIND       PRES   REMARKS
SPRINGFIELD    MOSUNNY   90  68  48 S17       29.98F HX  94
JOPLIN         SUNNY     94  67  41 SW12      29.97F HX  97

$$
MOZ032>034-039>042-045>050-055>058-069>072-132100-
...CENTRAL MISSOURI...

CITY           SKY/WX    TMP DP  RH WIND       PRES   REMARKS
COLUMBIA       PTSUNNY   84  69  60 CALM      29.98F
JEFFERSON CITY PTSUNNY   86  70  58 VRB5      29.96F HX  90
ROLLA          PTSUNNY   87  67  51 W8        29.98F HX  90
SEDALIA        LGT RAIN  82  72  71 W3        30.01S
WHITEMAN AFB   PTSUNNY   80  66  61 SW1       29.99F
OSAGE BEACH    MOSUNNY   88  70  55 CALM      29.98F HX  92

$$
MOZ051-052-059>065-132100-
...EAST CENTRAL MISSOURI...

CITY           SKY/WX    TMP DP  RH WIND       PRES   REMARKS
ST LOUIS INTL  PTSUNNY   90  71  53 W7        29.97F HX  96
SPIRIT OF STL  PTSUNNY   88  70  55 W7        29.95F HX  93
ST CHARLES     PTSUNNY   87  71  58 W5        29.95F HX  93

$$
MOZ072>076-082>087-097>100-106>115-132100-
...SOUTH CENTRAL AND SOUTHEAST MISSOURI...

CITY           SKY/WX    TMP DP  RH WIND       PRES   REMARKS
CAPE GIRARDEAU SUNNY     93  74  53 SW15      29.96F HX 103
FARMINGTON     MOSUNNY   91  70  49 N3        30.00F HX  97
POPLAR BLUFF   SUNNY     91  73  55 SW12      29.98F HX  99
WEST PLAINS    SUNNY     88  71  57 SW9       30.04F HX  94

$$



USA.gov is the U.S. government's official web portal to all federal, state and local government web resources and services.